This is the latest recevied weather packets stored in our database for station/object KC3SOZ. If no packets are shown the sender has not sent any weather packets the latest 1 day(s).
| Time | Temp. | Humidity | Pressure | Rain* | Wind** | Luminosity | Snow |
|---|---|---|---|---|---|---|---|
| 1778033927 | 22.78° C | 44% | 1009.8 hPa | 0 mm | - | 0 W/m² | - |
| 1778033624 | 22.22° C | 43% | 1009.8 hPa | 0 mm | - | 0 W/m² | - |
| 1778033321 | 22.78° C | 42% | 1009.6 hPa | 0 mm | - | 0 W/m² | - |
| 1778033019 | 22.78° C | 43% | 1009.5 hPa | 0 mm | - | 0 W/m² | - |
| 1778032110 | 22.78° C | 42% | 1009.3 hPa | 0 mm | - | 0 W/m² | - |
| 1778031807 | 23.33° C | 42% | 1009.3 hPa | 0 mm | - | 0 W/m² | - |
| 1778031503 | 23.33° C | 43% | 1009.4 hPa | 0 mm | - | 0 W/m² | - |
| 1778031201 | 23.89° C | 41% | 1009.3 hPa | 0 mm | - | 0 W/m² | - |
| 1778030897 | 23.89° C | 41% | 1009.4 hPa | 0 mm | - | 0 W/m² | - |
| 1778030595 | 23.89° C | 41% | 1009.3 hPa | 0 mm | - | 0 W/m² | - |
| 1778030292 | 23.89° C | 41% | 1009.1 hPa | 0 mm | - | 0 W/m² | - |
| 1778029686 | 23.89° C | 42% | 1009.1 hPa | 0 mm | - | 0 W/m² | - |
| 1778029384 | 23.89° C | 40% | 1008.9 hPa | 0 mm | - | 0 W/m² | - |
| 1778028777 | 23.89° C | 40% | 1008.8 hPa | 0 mm | - | 0 W/m² | - |
| 1778028473 | 24.44° C | 40% | 1008.7 hPa | 0 mm | - | 0 W/m² | - |
| 1778028171 | 23.89° C | 40% | 1008.9 hPa | 0 mm | - | 0 W/m² | - |
| 1778027867 | 24.44° C | 40% | 1008.4 hPa | 0 mm | - | 0 W/m² | - |
| 1778027563 | 24.44° C | 41% | 1008.6 hPa | 0 mm | - | 0 W/m² | - |
| 1778026956 | 24.44° C | 40% | 1008.5 hPa | 0 mm | - | 0 W/m² | - |
| 1778026046 | 24.44° C | 43% | 1008.4 hPa | 0 mm | - | 1 W/m² | - |
| 1778023927 | 25° C | 42% | 1007.9 hPa | 0 mm | - | 25 W/m² | - |
| 1778023018 | 25° C | 43% | 1007.9 hPa | 0 mm | - | 42 W/m² | - |
| 1778022111 | 25° C | 43% | 1007.7 hPa | 0 mm | - | 54 W/m² | - |
| 1778021807 | 25° C | 43% | 1007.7 hPa | 0 mm | - | 56 W/m² | - |
| 1778020898 | 25.56° C | 42% | 1007.9 hPa | 0 mm | - | 73 W/m² | - |
* Rain latest hour (hover to see other rain measurements)
** Current wind speed in m/s (hover to see current wind gust speed)